Retour au catalogue

COSMOS 2254

ActifMilitairePO
NORAD 22689·PAYLOAD·🇷🇺 Russia

Lancé Jun 24, 1993 depuis Plesetsk Cosmodrome

Loading…

Prochains Passages (prochaines 24 heures)

TLE

FraisSource: Space-Track

Époque: Sep 14, 2026, 04:18 UTC

1 22689U 93038C   26257.17973580  .00000042  00000-0  16641-3 0  9999
2 22689  82.5834 147.0650 0012746 103.7975  62.8298 12.64915170533387

Suivez COSMOS 2254 en temps réel avec AllMySat

Download on the App Store